Flag for Belgium Weather past 2 weeks in Kortrijk, Belgium

Now
79 °F

Sunny.


Feels Like: 80 °F
Forecast: 53 / 77 °F
Wind: 3 mph from North

Location: Lille Airport

Current Time: Jul 31, 2014 at 6:37:27 PM

Latest Report: Jul 31, 2014 at 6:00 PM


Visibility: 10 mi

Pressure: 29.92 "Hg

Humidity: 48%

Dew point: 57 °F

Location of KortrijkLocation

Historic Weather in Kortrijk — Graph

°F

Kortrijk temperature yesterday

Maximum temperature yesterday: 72 °F (at 1:00 PM)
Minimum temperature yesterday: 57 °F (at 5:00 AM)
Average temperature yesterday: 65 °F

Past Weeks' High & Low Weather Summary

 TemperatureHumidityPressure
High91 °F (Jul 18, 2:30 PM)100% (Jul 20, 6:00 AM)30.15 "Hg (Jul 20, 6:00 AM)
Low54 °F (Jul 31, 4:00 AM)35% (Jul 24, 5:00 PM)29.74 "Hg (Jul 19, 7:00 PM)
Average70 °F75%29.96 "Hg
* Reported Jul 16 5:00 PM — Jul 31 5:30 PM, Kortrijk, Weather by CustomWeather, © 2014

Note: Actual official high and low records may vary slightly from our data, if they occured in-between our weather recording intervals... More about our weather records

Advertising

Kortrijk weather history for previous 24 hours

 ConditionsComfort  
Time TempWeatherWind HumidityBarometerVisibility
5:30 PM
Jul 31
79 °FPassing clouds.3 mph42%29.92 "HgN/A
5:00 PM79 °FPassing clouds.3 mph42%29.92 "HgN/A
4:30 PM77 °FSunny.3 mph44%29.95 "Hg10 mi
4:00 PM77 °FSunny.5 mph47%29.95 "Hg10 mi
3:30 PM77 °FSunny.3 mph44%29.95 "Hg10 mi
3:00 PM77 °FPartly sunny.3 mph47%29.95 "HgN/A
2:30 PM77 °FPartly sunny.6 mph44%29.95 "HgN/A
2:00 PM75 °FPartly sunny.6 mph47%29.98 "HgN/A
1:30 PM73 °FPartly sunny.5 mph50%29.98 "HgN/A
1:00 PM73 °FPartly sunny.3 mph47%29.98 "HgN/A
12:30 PM72 °FPartly sunny.5 mph53%29.98 "HgN/A
12:00 PM73 °FPartly sunny.3 mph50%29.98 "HgN/A
11:30 AM70 °FPassing clouds.3 mph60%30.01 "HgN/A
11:00 AM70 °FPassing clouds.5 mph60%30.01 "HgN/A
10:00 AM66 °FPassing clouds.5 mph68%30.01 "HgN/A
9:30 AM64 °FPassing clouds.5 mph78%30.01 "HgN/A
8:30 AM59 °FSunny.2 mph88%30.01 "Hg10 mi
8:00 AM57 °FClear.No wind88%30.01 "Hg6 mi
7:30 AM55 °FClear.2 mph94%30.01 "Hg6 mi
7:00 AM54 °FFog.No wind100%30.01 "Hg6 mi
6:30 AM54 °FFog.1 mph94%30.01 "Hg6 mi
6:00 AM54 °FFog.No wind94%30.01 "Hg5 mi
5:30 AM54 °FFog.No wind94%30.01 "HgN/A
5:00 AM54 °FClear.No wind94%30.01 "Hg10 mi
4:30 AM54 °FClear.No wind94%30.01 "HgN/A
4:00 AM54 °FClear.2 mph94%30.01 "HgN/A
3:30 AM55 °FClear.1 mph88%30.01 "HgN/A
3:00 AM55 °FClear.No wind94%30.01 "HgN/A
2:30 AM57 °FClear.2 mph88%30.04 "HgN/A
2:00 AM57 °FClear.2 mph82%30.04 "Hg10 mi
12:00 AM59 °FClear.No wind82%30.01 "Hg10 mi
11:00 PM
Jul 30
61 °FClear.1 mph77%30.01 "Hg10 mi
10:00 PM64 °FSunny.5 mph68%30.01 "Hg10 mi
9:30 PM64 °FSunny.5 mph68%30.01 "Hg10 mi
9:00 PM66 °FSunny.6 mph64%30.01 "Hg10 mi
8:30 PM68 °FSunny.8 mph60%30.01 "Hg10 mi
8:00 PM68 °FSunny.9 mph60%29.98 "Hg10 mi
7:30 PM70 °FPassing clouds.9 mph57%29.98 "HgN/A
7:00 PM70 °FPassing clouds.9 mph57%29.98 "HgN/A
6:30 PM70 °FPassing clouds.9 mph60%29.98 "HgN/A
6:00 PM72 °FScattered clouds.10 mph57%29.98 "HgN/A
Weather by CustomWeather, © 2014

See weather overviewHow to use our weather pages